Location: Dackenheim
(49.5215°N, 8.1854°E)
Time: 00:16:24
(UTC+00:00)

JY1SAT - Pass Details

Date: 19 March 2026
Orbit: 466 x 476 km, 97.4° (Epoch: 13 April)

Event Time Altitude Azimuth Distance (km) Brightness Sun altitude
Exits shadow 20:00:58 25° 18° (NNE) 1,006 ? -23.0°
Drops below altitude 10° 20:02:47 10° 1° (N) 1,666 ? -23.2°
Sets 20:04:55 0° 354° (N) 2,549 ? -23.5°
